Regional Weather Roundup
Issued by NWS Albany, NY

Home | Current Version | Previous Version | Text Only | Print | Product List | Glossary On
Versions: 1 2 3 4 5 6 7 8 9 10 11 12 13 14 15 16 17 18 19 20 21 22 23 24 25 26 27 28
000
ASUS41 KALY 210210
RWRALY

NEW YORK STATE HOURLY WEATHER ROUNDUP
NATIONAL WEATHER SERVICE ALBANY NY
1000 PM EDT FRI APR 20 2018

NOTE: "FAIR" INDICATES FEW OR NO CLOUDS BELOW 12,000 FEET WITH NO
SIGNIFICANT WEATHER AND/OR NO OBSTRUCTIONS TO VISIBILITY.

NYZ032-033-038>043-046>054-057>066-NYZ062>081-082-084-210300-
EAST


CITY           SKY/WX    TMP DP  RH WIND       PRES   REMARKS
ALBANY         FAIR      37  24  59 W10       30.34F WCI  30
GLENS FALLS    NOT AVBL
POUGHKEEPSIE   FAIR      39  22  50 W3        30.34S
NEWBURGH       PTCLDY    37  25  60 VRB5      30.35S WCI  34
MONTGOMERY     FAIR      36  22  56 CALM      30.34S
WHITE PLAINS   FAIR      39  22  50 N14       30.32R WCI  31
ISLIP          FAIR      42  25  50 N13G23    30.32R
NEW YORK CITY  FAIR      44  24  45 N13       30.34R
CENTRAL PARK   FAIR      43  23  45 N9G18     30.37R
$$

NYZ005>009-017-018-044>046-055-056-210300-
CENTRAL


CITY           SKY/WX    TMP DP  RH WIND       PRES   REMARKS
FULTON         FAIR      37  27  67 W12       30.38R WCI  29
SYRACUSE       FAIR      34  24  67 W8        30.38S WCI  27
ROME           FAIR      34  24  67 CALM      30.38S
ELMIRA         FAIR      32  25  75 SW3       30.39R
BINGHAMTON     FAIR      32  21  64 NW5       30.33R WCI  27
MONTICELLO     FAIR      31  23  72 NW5       30.34R WCI  26
$$

NYZ026>034-041>043-087-210300-
NORTH


CITY           SKY/WX    TMP DP  RH WIND       PRES   REMARKS
WATERTOWN      FAIR      34  30  85 S5        30.35S WCI  30
FORT DRUM      NOT AVBL
OGDENSBURG     FAIR      39  28  64 W5        30.32S
MASSENA        FAIR      33  25  72 CALM      30.32R
SARANAC LAKE   CLOUDY    33  26  75 W5        30.25R WCI  29
PLATTSBURGH    CLOUDY    43  25  49 NW8       30.27R
$$

NYZ001>004-010>016-019>021-085-210300-
WEST


CITY           SKY/WX    TMP DP  RH WIND       PRES   REMARKS
NIAGARA FALLS  FAIR      36  23  59 W5        30.43R WCI  32
BUFFALO        FAIR      34  31  88 SW7       30.43S WCI  28
DUNKIRK        FAIR      35  29  78 SW6       30.44S WCI  30
JAMESTOWN      FAIR      34  24  67 W9        30.40S WCI  27
WELLSVILLE     FAIR      33  25  72 NW9       30.38S WCI  25
ROCHESTER      FAIR      39  25  57 NW9       30.41R WCI  33
PENN YAN       FAIR      38  22  52 W8        30.38S WCI  32
$$

             KEY
       WCI = WIND CHILL INDEX
       VSB = VISIBILITY
       HX  = HEAT INDEX
$$




USA.gov is the U.S. government's official web portal to all federal, state and local government web resources and services.